Regional Weather Roundup
Issued by NWS

Home | Current Version | Previous Version | Graphics & Text | Print | Product List | Glossary On
Versions: 1 2 3 4 5 6 7 8 9 10 11 12 13 14 15 16 17 18 19 20 21 22 23 24 25 26 27 28 29 30 31 32 33 34 35 36 37 38 39 40 41 42 43 44 45 46 47 48 49 50
000
ASUS45 KPSR 020510
RWRAZ

ARIZONA REGIONAL HOURLY WEATHER ROUNDUP
NATIONAL WEATHER SERVICE PHOENIX AZ
1000 PM MST SUN MAR 01 2015

NOTE: FAIR INDICATES FEW OR NO CLOUDS BELOW 12,000 FEET WITH NO
SIGNIFICANT WEATHER AND/OR OBSTRUCTIONS TO VISIBILITY.

AZZ001>003-036-020600-
NORTHWEST ARIZONA

CITY           SKY/WX    TMP DP  RH WIND       PRES   REMARKS
BULLHEAD CITY  LGT RAIN  50  46  87 N12       29.97F
KINGMAN        LGT RAIN  41  39  93 NE6       29.93F
$$

AZZ004>008-015-016-018-020600-
NORTH CENTRAL ARIZONA

CITY           SKY/WX    TMP DP  RH WIND       PRES   REMARKS
GRAND CANYON   FLURRIES  36  34  92 SE7       29.99S WCI  30
PRESCOTT       LGT RAIN  47  41  80 S5        29.98S
FLAGSTAFF      LGT RAIN  39  36  89 S20G31    30.02S WCI  29
PAYSON         CLOUDY    48  45  87 VRB5      30.05S
PAGE           LGT RAIN  36  33  89 W5        30.01F WCI  32
$$

AZZ009>014-017-020600-
NORTHEAST ARIZONA

CITY           SKY/WX    TMP DP  RH WIND       PRES   REMARKS
WINSLOW        FOG       38  37  97 CALM      30.03R VSB 1/2
SAINT JOHNS    CLEAR     40  29  64 S3        30.06R
WINDOW ROCK    PTCLDY    44  35  70 SE7       30.09R
SHOW LOW       CLEAR     41  37  87 S16       30.09R
$$

AZZ023-020600-
GREATER PHOENIX AREA

CITY           SKY/WX    TMP DP  RH WIND       PRES   REMARKS
PHOENIX        MOCLDY    68  48  48 W7        29.91R
BUCKEYE        CLOUDY    64  50  59 S8        29.94R
LUKE AFB       MOCLDY    64  50  61 S9        29.91R
DEER VALLEY    CLOUDY    64  48  56 SW6       29.92R
SCOTTSDALE     PTCLDY    65  47  52 W5        29.94R
MESA-GATEWAY   MOCLDY    61  46  59 S6        29.96R
$$

AZZ027-028-020600-
SOUTHWEST MARICOPA COUNTY AND PINAL COUNTY

CITY           SKY/WX    TMP DP  RH WIND       PRES   REMARKS
CASA GRANDE    CLEAR     63  46  55 SW13      29.95R
GILA BEND      CLEAR     66  48  52 S16G22    29.93R
$$

AZZ503-504-507>509-020600-
SOUTHEAST ARIZONA

CITY           SKY/WX    TMP DP  RH WIND       PRES   REMARKS
TUCSON         MOCLDY    66  43  43 S8        30.03R
DAVIS-MONTHAN  MOCLDY    65  44  46 SW12      30.00R
NOGALES        PTCLDY    59  42  53 S12       30.05R
SIERRA VISTA   PTCLDY    56  34  43 SE5       30.07S
DOUGLAS        MOCLDY    59  33  37 S15       30.08R
SAFFORD        MOCLDY    62  39  42 NW8       29.99R
$$

AZZ020-021-025-026-031-020600-
SOUTHWEST ARIZONA

CITY           SKY/WX    TMP DP  RH WIND       PRES   REMARKS
YUMA           LGT RAIN  54  51  90 NW6       29.96R
$$

CAZ031-033-041-043-047-048-061-020600-
SOUTHERN CALIFORNIA

CITY           SKY/WX    TMP DP  RH WIND       PRES   REMARKS
DOWNTOWN L.A.  CLOUDY    54  49  83 VRB5      29.94R
L.A. AIRPORT   MOCLDY    55  47  74 CALM      29.94S
SAN DIEGO      MOCLDY    56  47  71 S6        29.96S
BURBANK        LGT RAIN  50  45  83 NE6       29.94R
ONTARIO        MOCLDY    52  43  71 S3        29.94R
RIVERSIDE      CLOUDY    52  43  71 CALM      29.95R
PALM SPRINGS   LGT RAIN  51  48  89 N5        29.97S
EL CENTRO NAS  LGT RAIN  53  49  86 NW5       29.96S
IMPERIAL       CLOUDY    53  50  89 NW3       29.96R
BLYTHE         LGT RAIN  52  51  97 NW7       29.95S FOG
NEEDLES        LGT RAIN  52  47  83 E3        29.96S
$$

NVZ020-UTZ003-020600-
SOUTHERN NEVADA-UTAH

CITY           SKY/WX    TMP DP  RH WIND       PRES   REMARKS
LAS VEGAS      LGT RAIN  47  43  86 SW5       29.93F
SALT LAKE CITY MOCLDY    38  30  73 S5        30.00S WCI  34
$$

NMZ009-TXZ055-020600-
NEW MEXICO-WEST TEXAS

CITY           SKY/WX    TMP DP  RH WIND       PRES   REMARKS
ALBUQUERQUE    PTCLDY    48  30  49 S8        30.10R
EL PASO        CLOUDY    61  31  32 CALM      30.09R
$$


........................KEY........................
SKY/WX - SKY CONDITION/WEATHER
TMP    - TEMPERATURE IN FAHRENHEIT
DP     - DEW POINT IN FAHRENHEIT
RH     - RELATIVE HUMIDITY IN PERCENT
WIND   - DIRECTION AND SPEED IN MILES PER HOUR (MPH)
VRB    - VARIABLE WIND DIRECTION
PRES   - MEAN SEA LEVEL PRESSURE IN INCHES OF MERCURY
         F - FALLING PRESSURE   R - RISING PRESSURE
         S - STEADY PRESSURE
VSB    - VISIBILITY IN MILES
HX     - HEAT INDEX IN FAHRENHEIT
WCI    - WIND CHILL INDEX IN FAHRENHEIT
TC     - TEMPERATURE IN CELSIUS WHICH IS ALSO KNOWN AS
         TEMPERATURE IN CENTIGRADE
AFB    - AIR FORCE BASE
         LUKE AFB IS LUKE AIR FORCE BASE
         DAVIS-MONTHAN IS DAVIS-MONTHAN AIR FORCE BASE
NAS    - NAVAL AIR STATION
         EL CENTRO NAS IS EL CENTRO NAVAL AIR STATION
N/A    - NOT AVAILABLE


USA.gov is the U.S. government's official web portal to all federal, state and local government web resources and services.